星链-32124 (STARLINK-32124)

导读 | 豆包AI

STARLINK-32124是美国太空探索技术公司(SpaceX)星链(Starlink)互联网星座项目的一颗卫星,2024年7月28日由美国发射入轨。星链项目旨在构建全球卫星互联网通信网络,该卫星作为星座扩容组网的组成部分,将为全球偏远地区、海洋空域等场景提供低延迟、高速率的宽带互联网接入服务。

Basic Information
目录编号:
60298
目录名称:
STARLINK-32124
国际标识:
2024-132W
轨道中心:
EARTH
卫星名称:
星链-32124 (STARLINK-32124)
卫星全名:
星链-32124 (STARLINK-32124)
卫星状态:
在轨 (已飞行595 天)
发射日期:
2024-07-28 UTC
国别 :
美国 (US)
星等 :
--
Orbit Information
数据来源 国际轨道数据 AOE轨道数据
星历时间 2026-03-15T11:39:30+0800
12小时前
查看轨道信息
2026-03-14T16:00:00+0800
1天前
查看轨道信息
半长轴 6853.423km 6853.359km
偏心率 0.0000727 0.0000013
轨道倾角 53.162° 53.165°
近地点辐角 51.037° 22.958°
升交点赤经 27.279° 31.087°
平近点角 309.069° 142.524°
近地点 474.787km 475.213km
远地点 475.785km 475.231km
周期 94.107分钟 94.105分钟
每日圈数 15.301765 15.301977
Detailed Information
卫星平台:
Starlink v2.0 mini
运营商:
太空探索技术公司
运营商所在国:
美国
制造商(研发单位):
太空探索技术公司
制造商所在国:
美国
使用方式:
暂无
Satellite Introduction
星链(Starlink)计划是由太空探索技术公司(SpaceX)提出的一个巨型低轨卫星互联网星座项目,计划在2019年至2024年间在太空搭建由约1.2万颗卫星组成的“星链”网络,其中1584颗将部署在地球上空550千米处的近地轨道,并从2020年开始工作。该卫星仍在工作。
2D Orbit Map
3D Orbit Map
Orbit Altitude Analysis Chart
Orbit Inclination Analysis Chart
Orbit Comprehensive Analysis Chart
View Comprehensive Chart